Wind_Speed
4 6 7 6 3 2 13 11 16 13 11 12 12 16 14 11 5 3 8 13 2 5 5 6 7 7 6 6 6 5 5 5 5 5 6 7 7 7 8 8 9 10 11 11 12 12 12 12 12
6 7 4 3 10 11 2 21 16 10 12 12 9 7 14 10 4 5 9 9 4 4 4 6 6 6 6 4 4 3 3 4 5 5 6 6 6 6 7 8 10 11 12 12 13 14 14 14 14
5 5 6 7 18 2 2 3 12 11 12 9 15 10 7 5 7 7 6 7 2 4 4 5 6 6 5 4 4 3 4 5 5 5 5 5 6 7 9 10 11 12 13 13 13 13 13 13 14
5 3 11 10 13 8 5 9 13 8 10 11 12 15 13 10 5 4 4 6 1 4 5 4 4 5 4 4 4 4 4 4 4 4 4 4 6 7 9 9 9 9 10 11 12 12 13 14 15
4 3 14 19 16 6 7 11 17 12 10 11 12 16 13 5 4 1 1 3 11 4 5 3 3 4 4 4 5 5 5 4 3 3 3 5 6 6 7 7 9 9 10 11 11 12 13 14 15
9 11 19 23 7 14 3 4 5 8 11 11 12 14 9 9 9 1 3 8 11 7 1 2 3 4 4 4 5 5 3 3 3 3 4 5 5 6 7 8 8 9 10 11 12 13 14 15 17
12 12 22 27 11 14 8 5 13 12 5 6 9 13 5 10 12 3 10 14 13 9 1 2 4 5 6 5 3 2 2 2 2 2 3 3 4 5 5 6 7 7 8 10 12 15 17 19 21
13 15 22 25 12 10 11 8 5 12 7 5 5 2 12 5 8 10 13 9 10 4 2 3 6 6 5 2 1 1 1 1 2 2 2 2 2 3 3 5 7 9 11 14 17 20 23 25 28
12 19 22 23 6 7 1 13 6 8 5 10 6 12 11 6 9 14 8 10 9 9 7 4 5 4 3 4 1 0 2 1 3 3 2 1 1 3 3 7 10 12 15 17 22 24 26 28 31
16 20 22 19 10 4 9 21 11 10 7 11 12 11 5 7 12 10 8 10 8 9 6 6 4 3 5 2 3 3 3 4 4 4 1 4 6 7 11 13 15 18 21 23 28 32 34 36 38
18 24 19 11 14 9 6 7 16 11 9 13 21 14 6 8 12 8 8 8 7 7 8 12 9 9 6 9 5 6 8 6 4 2 2 4 7 8 12 17 21 24 28 30 31 34 39 40 40
21 22 21 18 4 11 15 10 12 12 8 20 23 21 10 12 10 8 9 8 9 8 11 13 17 13 19 16 7 7 7 5 5 3 7 8 13 15 17 20 22 24 27 30 33 39 43 46 44
22 23 22 17 15 13 13 13 12 15 15 4 12 19 10 10 9 9 10 9 12 12 13 16 10 13 16 11 15 14 10 10 9 12 9 16 20 20 24 27 29 31 33 34 37 43 51 52 49
17 19 22 19 19 18 17 17 12 12 16 14 15 13 10 13 11 13 15 17 18 15 11 16 11 13 13 15 15 14 15 16 18 19 16 21 25 26 29 32 34 37 38 41 46 54 59 56 51
16 17 15 22 18 19 16 18 16 16 8 11 13 12 12 10 14 17 16 20 19 19 15 17 12 16 17 18 16 16 20 21 24 25 25 27 29 31 34 37 39 41 42 47 54 62 60 51 51
15 17 19 18 19 20 17 22 17 14 14 10 13 12 15 17 18 19 19 18 20 19 16 16 16 14 17 17 19 20 23 25 28 33 31 35 37 39 41 42 43 43 44 53 59 58 52 52 56
16 18 20 18 21 13 16 18 18 19 12 14 12 15 19 18 20 26 24 24 21 18 20 18 19 19 16 20 23 23 29 31 35 38 41 40 42 42 43 44 43 44 50 57 55 51 52 53 56
18 19 15 17 16 13 19 15 18 4 11 14 15 14 19 26 21 30 24 25 20 19 18 21 20 19 24 24 25 28 31 36 41 45 45 47 47 44 43 41 42 46 46 52 52 53 55 53 54
22 17 14 16 15 12 17 15 14 13 15 15 18 16 17 12 25 29 10 33 25 22 17 19 23 23 26 32 32 36 37 40 43 46 49 49 49 45 40 38 41 45 50 50 53 54 55 49 51
20 15 17 14 10 10 12 15 18 16 15 13 11 8 11 11 21 35 15 21 22 23 26 23 23 23 26 30 37 39 41 44 47 49 52 45 38 33 31 34 40 47 46 50 52 53 51 47 41
15 16 18 17 13 12 12 19 22 22 20 13 14 18 21 23 20 18 8 12 21 22 23 24 27 28 30 34 38 42 43 46 44 43 32 30 29 28 33 38 45 48 49 51 50 49 46 38 31
19 16 17 19 19 22 20 21 21 24 23 20 16 18 25 7 4 23 17 23 23 22 22 19 20 22 24 26 28 30 33 32 30 29 27 25 29 34 39 42 47 46 46 47 46 43 37 32 28
20 15 17 21 21 20 24 19 20 19 24 18 20 15 14 16 23 22 12 10 9 9 11 16 18 19 21 24 24 24 22 22 20 21 25 28 34 39 44 41 45 46 43 41 42 36 31 29 27
16 17 16 10 17 21 24 24 27 20 21 23 18 13 16 19 18 15 10 10 14 17 19 21 23 23 24 24 24 24 20 20 23 24 27 30 35 39 45 45 42 40 41 39 37 32 29 28 27
18 16 15 14 14 16 23 25 24 13 15 21 17 12 14 11 12 12 13 16 19 21 23 23 23 23 24 25 25 24 25 26 26 25 29 34 36 38 40 42 38 38 38 36 33 28 29 27 26
23 22 21 11 11 11 19 24 24 16 16 17 17 10 11 10 11 12 14 17 21 24 24 21 20 22 22 24 23 24 25 27 29 30 33 40 40 42 40 36 36 36 35 32 31 28 27 27 24
24 25 25 27 27 20 8 5 5 12 16 17 14 10 9 11 11 11 14 16 20 21 21 20 21 22 22 24 24 24 26 29 33 33 38 37 29 34 32 32 33 32 31 30 29 27 26 26 24
28 23 21 22 12 14 18 23 19 23 17 15 13 13 12 13 12 13 15 16 16 16 17 18 20 21 23 25 27 30 30 32 31 35 32 30 30 29 28 29 29 29 30 29 28 25 26 24 24
24 28 24 19 20 12 10 4 5 22 15 17 16 16 15 14 14 16 15 14 14 14 15 18 20 21 24 28 30 31 32 32 30 27 30 31 29 28 28 28 28 29 30 28 27 25 25 25 26
27 26 27 22 20 20 16 4 3 9 15 18 18 23 16 15 15 16 15 16 16 17 18 20 22 23 27 28 32 29 27 27 31 30 30 28 27 26 27 28 28 27 28 27 26 25 25 25 27
Wind_Direction
335 236 264 320 299 239 2 347 106 97 88 87 76 92 63 62 12 98 148 153 186 154 166 149 149 148 144 139 131 119 104 86 69 55 42 34 29 26 20 11 8 5 1 357 353 350 346 341 337
338 253 291 305 251 108 271 323 94 101 105 97 89 45 87 51 50 90 138 172 148 152 152 138 141 143 145 141 132 122 108 91 73 56 50 40 30 23 14 4 355 350 346 342 339 335 331 329 325
328 275 292 254 255 127 3 147 87 109 96 108 91 75 114 89 81 109 130 170 122 161 161 145 144 143 146 140 133 120 100 82 73 60 47 33 19 1 349 342 338 337 336 337 340 341 340 339 336
305 296 305 265 277 184 81 205 163 103 101 93 107 84 82 72 77 63 128 173 206 174 152 150 149 144 139 135 128 112 96 85 73 60 37 3 343 333 333 336 343 348 350 351 350 349 347 346 343
298 291 270 267 275 115 246 148 144 113 111 100 102 100 96 92 24 2 67 124 122 244 130 153 150 134 135 128 125 116 106 98 74 36 354 337 341 350 354 3 9 10 7 5 4 2 359 355 350
273 277 282 274 356 312 146 155 116 121 111 118 109 116 107 56 44 134 155 127 153 239 126 187 169 149 138 134 123 113 92 53 23 14 4 2 4 7 11 15 10 5 8 10 6 1 355 350 345
269 286 281 288 265 227 282 179 166 129 100 121 122 113 102 47 15 80 130 145 175 256 113 186 166 142 139 133 120 76 53 35 21 20 21 29 31 18 13 10 12 10 6 360 353 349 344 339 334
262 281 286 277 216 281 248 271 241 232 139 129 158 188 138 49 14 122 166 159 163 215 104 153 152 145 141 143 112 84 24 46 69 57 56 41 34 31 26 29 11 359 354 350 343 345 339 334 329
251 266 268 278 277 140 124 198 221 101 113 133 111 121 155 32 76 138 166 147 177 158 259 173 163 173 189 164 129 191 143 137 135 117 98 67 180 42 49 358 348 343 340 339 334 332 329 329 329
244 254 259 316 271 347 15 201 173 182 175 158 147 156 174 48 130 153 145 155 179 163 215 244 272 196 231 186 174 176 192 170 155 141 124 27 17 2 337 337 324 324 324 324 324 329 326 323 325
246 250 265 324 265 289 279 240 237 214 205 181 146 169 151 122 134 150 156 171 185 177 206 210 190 240 142 276 202 211 191 178 179 184 288 311 315 312 304 311 316 321 322 320 320 315 314 315 313
248 252 261 274 321 263 284 281 283 222 239 296 184 155 159 142 138 153 161 174 178 200 199 198 240 191 171 239 217 210 219 215 230 251 279 293 294 307 304 301 302 304 304 306 310 312 315 312 310
246 253 257 261 273 273 282 273 279 271 260 27 136 141 154 159 161 170 171 176 191 215 201 194 213 188 202 216 211 227 238 248 265 270 285 297 294 302 299 301 303 303 302 307 310 316 317 314 309
247 252 257 257 261 263 265 265 265 259 280 180 144 150 200 178 193 198 189 191 196 214 217 199 201 191 204 226 228 244 264 271 279 282 302 298 300 303 303 303 303 303 308 305 308 316 318 311 309
249 259 262 246 258 253 257 258 254 265 296 189 179 199 212 215 207 211 214 195 206 215 219 208 207 199 211 229 247 258 263 274 282 289 295 297 298 299 301 300 299 301 306 310 313 312 310 310 309
244 249 257 250 245 245 242 258 248 236 250 239 219 219 215 226 221 217 219 235 219 217 228 227 226 215 229 236 249 262 272 280 288 291 290 293 295 296 296 294 296 301 304 313 313 311 313 310 311
239 244 241 265 218 223 231 254 251 240 231 230 243 245 234 233 239 225 216 227 242 223 239 244 229 249 242 247 261 270 277 287 287 288 287 287 286 290 290 288 291 296 303 309 312 313 310 313 312
232 223 257 253 191 221 226 252 258 213 222 231 236 256 262 248 245 235 214 219 233 257 254 262 250 245 262 267 269 273 274 278 283 285 291 291 293 291 287 289 292 303 307 308 311 312 312 315 314
261 287 259 241 209 206 233 241 249 239 237 252 252 255 269 264 223 234 204 169 191 225 237 254 263 256 264 272 272 277 282 279 282 286 289 291 292 298 301 289 293 303 307 307 311 312 313 317 313
255 265 266 266 231 208 230 251 252 245 253 232 234 254 281 276 262 271 269 248 157 213 241 244 257 272 275 278 285 286 285 285 286 287 293 302 306 310 297 297 300 302 305 307 309 313 313 315 313
247 248 250 263 258 219 228 260 260 246 237 226 237 257 281 291 280 290 297 240 252 247 256 262 268 275 274 275 275 282 286 290 294 297 304 306 306 308 307 305 308 306 307 306 311 313 312 313 314
242 243 249 252 254 261 224 249 250 240 225 220 235 244 251 360 325 285 278 263 279 271 265 274 289 292 289 287 287 288 290 292 296 302 310 309 313 312 308 311 308 307 310 312 315 312 313 313 316
243 248 261 242 252 261 261 269 259 277 191 194 211 232 265 259 271 289 308 294 296 310 316 307 306 310 311 310 307 305 303 305 305 311 312 314 309 306 309 314 316 315 314 316 312 313 314 314 313
240 243 249 252 245 251 248 260 262 192 193 179 200 237 258 263 272 281 296 309 315 318 316 312 312 311 315 315 312 312 307 309 313 316 312 310 308 311 310 316 315 316 314 315 312 312 316 312 311
227 227 241 235 236 242 241 236 248 144 181 195 216 245 248 244 264 276 295 308 310 312 313 311 311 313 314 314 315 314 312 316 314 311 311 311 308 306 310 314 315 313 313 315 312 315 310 306 304
218 221 234 235 223 253 253 233 222 169 161 176 201 217 222 245 264 280 296 303 311 313 310 309 311 314 314 315 317 318 315 313 310 310 311 314 307 304 303 314 314 314 316 315 316 314 313 306 308
212 222 234 262 282 288 233 91 159 169 164 165 182 189 222 251 257 282 292 302 311 313 307 307 313 313 312 314 314 316 314 311 312 310 309 315 314 314 316 314 313 317 315 315 314 313 309 306 310
232 223 223 239 260 275 256 191 225 193 172 172 187 217 231 239 251 273 281 296 309 307 303 306 312 308 311 314 314 315 314 312 312 312 316 315 317 315 316 315 318 322 316 317 317 313 310 314 312
219 235 243 236 238 236 273 177 126 164 203 196 203 209 228 225 246 260 272 295 308 313 310 310 313 312 313 314 315 315 314 314 318 322 321 317 319 321 322 321 325 326 319 319 319 321 316 320 316
229 226 230 242 240 255 270 217 226 231 201 203 201 213 221 227 247 252 277 289 302 306 318 321 319 318 317 315 317 315 318 315 321 323 322 319 321 322 325 326 325 324 318 319 323 321 322 320 316
Height
3196 3193 3192 3193 3199 3197 3194 3189 3186 3190 3190 3191 3190 3189 3193 3194 3193 3196 3194 3197 3196 3199 3201 3201 3202 3204 3205 3206 3207 3208 3208 3209 3209 3210 3210 3210 3211 3211 3212 3212 3212 3212 3211 3211 3210 3210 3209 3209 3209
3196 3193 3193 3194 3197 3196 3198 3194 3188 3192 3191 3191 3189 3191 3191 3192 3193 3193 3194 3196 3197 3199 3200 3201 3202 3204 3205 3206 3207 3208 3208 3209 3209 3210 3210 3211 3211 3211 3212 3212 3211 3211 3210 3210 3209 3208 3208 3207 3207
3196 3194 3194 3195 3192 3195 3195 3196 3185 3193 3191 3192 3191 3191 3191 3192 3193 3195 3196 3196 3197 3199 3201 3202 3203 3204 3205 3206 3207 3208 3208 3209 3209 3210 3210 3211 3211 3211 3211 3211 3210 3209 3209 3208 3207 3207 3206 3205 3205
3196 3196 3195 3193 3189 3189 3190 3196 3187 3196 3193 3191 3191 3191 3193 3193 3194 3196 3196 3196 3197 3198 3200 3202 3203 3204 3206 3206 3207 3208 3208 3209 3210 3210 3210 3211 3211 3210 3210 3210 3209 3208 3207 3207 3206 3206 3205 3204 3203
3196 3196 3195 3191 3189 3186 3189 3181 3193 3190 3192 3193 3191 3192 3194 3195 3196 3196 3196 3197 3199 3197 3200 3202 3203 3204 3205 3206 3207 3208 3208 3209 3209 3209 3210 3210 3209 3209 3209 3208 3208 3207 3207 3206 3205 3204 3203 3203 3201
3197 3200 3196 3188 3189 3193 3188 3194 3192 3194 3193 3192 3191 3192 3194 3195 3194 3195 3196 3198 3202 3198 3201 3202 3203 3204 3205 3206 3207 3207 3208 3208 3209 3208 3209 3208 3208 3208 3208 3207 3207 3206 3205 3205 3204 3203 3202 3200 3199
3198 3200 3195 3189 3187 3190 3194 3181 3185 3191 3195 3196 3193 3189 3191 3192 3192 3192 3195 3199 3201 3197 3201 3202 3203 3204 3205 3206 3207 3207 3208 3208 3208 3208 3208 3208 3207 3208 3207 3207 3206 3205 3205 3204 3203 3202 3200 3199 3197
3200 3201 3196 3187 3184 3184 3193 3184 3192 3187 3196 3196 3197 3191 3192 3193 3192 3192 3197 3198 3200 3198 3200 3201 3202 3204 3205 3206 3207 3207 3207 3207 3207 3207 3207 3207 3207 3207 3207 3206 3206 3205 3204 3203 3201 3200 3198 3196 3194
3200 3200 3194 3187 3189 3183 3182 3190 3184 3183 3191 3196 3197 3193 3193 3193 3192 3195 3196 3199 3200 3201 3199 3201 3203 3204 3205 3206 3206 3206 3207 3207 3207 3207 3207 3207 3207 3206 3207 3206 3205 3204 3203 3201 3199 3198 3195 3193 3190
3198 3197 3191 3193 3192 3185 3183 3189 3186 3193 3195 3193 3193 3193 3194 3193 3194 3197 3198 3201 3202 3203 3202 3201 3201 3203 3203 3204 3205 3207 3207 3207 3207 3207 3207 3207 3206 3205 3205 3204 3203 3202 3200 3198 3196 3192 3190 3187 3183
3196 3193 3192 3193 3191 3189 3188 3190 3191 3187 3184 3190 3186 3193 3193 3193 3195 3199 3200 3202 3203 3203 3204 3205 3204 3204 3207 3204 3205 3206 3206 3206 3206 3207 3207 3207 3206 3205 3204 3202 3200 3198 3195 3193 3191 3190 3186 3183 3179
3194 3192 3193 3192 3189 3190 3190 3189 3187 3185 3180 3184 3185 3191 3194 3193 3197 3199 3201 3202 3203 3202 3203 3205 3201 3204 3206 3203 3205 3205 3205 3206 3206 3207 3206 3207 3205 3204 3203 3201 3199 3196 3193 3191 3188 3184 3180 3176 3172
3192 3191 3191 3191 3190 3189 3189 3187 3191 3184 3182 3184 3187 3191 3194 3196 3197 3199 3200 3201 3201 3198 3198 3201 3199 3202 3203 3203 3204 3204 3204 3204 3204 3204 3206 3205 3203 3202 3199 3197 3195 3192 3188 3185 3181 3177 3172 3167 3162
3190 3190 3189 3188 3188 3188 3188 3188 3190 3184 3183 3181 3185 3189 3193 3192 3195 3196 3195 3196 3196 3194 3193 3195 3196 3199 3201 3201 3202 3203 3203 3203 3203 3201 3204 3202 3200 3198 3195 3192 3189 3185 3183 3179 3173 3168 3162 3157 3151
3188 3188 3187 3187 3186 3186 3187 3186 3188 3187 3184 3179 3192 3192 3189 3190 3190 3191 3192 3193 3193 3192 3191 3191 3191 3195 3196 3198 3200 3202 3201 3201 3200 3198 3199 3197 3194 3193 3190 3186 3182 3179 3177 3172 3166 3160 3154 3149 3143
3186 3186 3185 3183 3183 3184 3186 3183 3185 3188 3189 3189 3190 3189 3188 3186 3187 3187 3192 3194 3194 3193 3191 3191 3190 3191 3193 3196 3198 3198 3198 3197 3195 3192 3193 3191 3188 3186 3184 3179 3175 3174 3169 3163 3157 3151 3143 3140 3132
3183 3182 3180 3178 3179 3182 3183 3183 3181 3184 3185 3187 3188 3187 3185 3186 3188 3183 3182 3185 3190 3190 3187 3189 3190 3187 3190 3192 3193 3195 3193 3193 3189 3186 3182 3183 3178 3177 3176 3171 3168 3165 3158 3154 3147 3141 3135 3129 3120
3176 3176 3176 3174 3176 3179 3181 3181 3180 3179 3182 3184 3185 3186 3186 3182 3185 3168 3169 3179 3187 3190 3188 3187 3189 3188 3183 3186 3189 3189 3189 3186 3182 3177 3176 3173 3171 3169 3167 3163 3160 3156 3151 3145 3139 3133 3126 3119 3109
3174 3174 3172 3172 3172 3175 3178 3179 3180 3180 3181 3182 3183 3185 3185 3177 3171 3176 3137 3142 3175 3184 3187 3184 3181 3183 3180 3177 3181 3181 3181 3179 3176 3172 3167 3165 3161 3159 3156 3155 3153 3149 3144 3136 3129 3122 3115 3110 3102
3174 3174 3172 3170 3171 3173 3177 3177 3177 3178 3179 3179 3182 3179 3176 3174 3172 3162 3164 3133 3154 3179 3180 3179 3179 3177 3174 3174 3173 3174 3174 3171 3168 3163 3160 3157 3153 3151 3149 3147 3144 3140 3135 3128 3120 3113 3106 3101 3094
3174 3174 3174 3173 3171 3172 3176 3177 3175 3175 3176 3176 3177 3177 3174 3170 3172 3168 3171 3176 3181 3181 3180 3178 3177 3174 3169 3170 3169 3167 3165 3162 3159 3155 3154 3150 3149 3146 3144 3142 3136 3131 3124 3119 3112 3105 3098 3094 3089
3172 3173 3173 3172 3171 3169 3170 3169 3167 3168 3169 3172 3173 3173 3175 3173 3165 3166 3167 3173 3175 3175 3175 3173 3170 3168 3167 3168 3167 3165 3161 3158 3155 3151 3149 3147 3144 3141 3136 3135 3128 3123 3117 3109 3104 3098 3092 3087 3083
3169 3170 3169 3169 3169 3169 3166 3165 3161 3159 3163 3167 3167 3171 3175 3174 3170 3166 3169 3169 3168 3168 3169 3168 3166 3164 3164 3163 3162 3159 3156 3154 3151 3149 3145 3143 3139 3135 3128 3128 3120 3114 3109 3103 3097 3092 3086 3081 3077
3167 3168 3168 3167 3167 3165 3164 3164 3158 3156 3159 3160 3165 3170 3172 3171 3170 3169 3169 3169 3168 3166 3165 3164 3163 3163 3161 3159 3158 3155 3153 3150 3147 3145 3142 3139 3134 3128 3121 3118 3113 3108 3102 3097 3092 3086 3081 3077 3073
3163 3165 3165 3165 3162 3159 3158 3159 3157 3154 3154 3156 3163 3166 3167 3168 3169 3169 3168 3167 3166 3165 3165 3163 3162 3160 3158 3156 3154 3151 3149 3146 3143 3142 3138 3134 3130 3124 3118 3112 3107 3101 3097 3091 3087 3080 3077 3073 3070
3157 3160 3159 3155 3150 3150 3152 3149 3150 3152 3154 3154 3159 3160 3163 3165 3166 3167 3166 3166 3165 3163 3162 3160 3159 3157 3155 3153 3151 3148 3145 3142 3139 3136 3132 3127 3122 3117 3111 3106 3102 3096 3090 3086 3081 3076 3073 3069 3064
3153 3155 3157 3154 3150 3149 3148 3147 3153 3155 3155 3155 3154 3158 3159 3162 3164 3165 3164 3164 3163 3161 3159 3157 3155 3153 3152 3149 3147 3144 3142 3138 3134 3130 3126 3120 3115 3111 3105 3101 3096 3091 3085 3081 3076 3072 3068 3064 3060
3146 3151 3153 3152 3151 3150 3142 3143 3147 3149 3154 3156 3155 3156 3156 3158 3161 3162 3162 3162 3161 3159 3157 3155 3153 3151 3149 3146 3143 3139 3136 3133 3128 3123 3118 3114 3110 3105 3100 3096 3091 3085 3081 3076 3072 3068 3064 3059 3055
3144 3144 3146 3147 3147 3147 3145 3145 3147 3147 3153 3154 3155 3154 3155 3155 3158 3159 3160 3159 3158 3157 3155 3153 3151 3148 3146 3142 3139 3136 3131 3126 3122 3117 3113 3108 3104 3100 3095 3091 3085 3081 3077 3072 3067 3063 3059 3053 3050
3138 3140 3143 3143 3145 3143 3144 3144 3147 3146 3148 3150 3154 3150 3152 3153 3155 3156 3157 3156 3155 3153 3152 3150 3147 3144 3141 3138 3135 3131 3126 3122 3117 3113 3109 3104 3100 3095 3090 3086 3081 3077 3074 3068 3064 3059 3054 3049 3045